TimeEDT,TemperatureF,Dew PointF,Humidity,Sea Level PressureIn,VisibilityMPH,Wind Direction,Wind SpeedMPH,Gust SpeedMPH,PrecipitationIn,Events,Conditions,WindDirDegrees,DateUTC
12:54 AM,70.0,66.9,90,30.13,10.0,Calm,Calm,-,N/A,,Clear,0,2012-10-04 04:54:00
1:54 AM,69.1,66.9,93,30.14,7.0,Calm,Calm,-,N/A,,Clear,0,2012-10-04 05:54:00
2:54 AM,68.0,66.0,93,30.14,8.0,North,-9999.0,-,N/A,,Clear,0,2012-10-04 06:54:00
3:54 AM,69.1,66.0,90,30.12,10.0,Calm,Calm,-,N/A,,Clear,0,2012-10-04 07:54:00
4:54 AM,68.0,66.0,93,30.12,7.0,Calm,Calm,-,N/A,,Clear,0,2012-10-04 08:54:00
5:54 AM,70.0,66.9,90,30.13,6.0,Calm,Calm,-,N/A,,Mostly Cloudy,0,2012-10-04 09:54:00
6:07 AM,69.8,66.2,88,30.13,6.0,Calm,Calm,-,N/A,,Mostly Cloudy,0,2012-10-04 10:07:00
6:54 AM,70.0,66.9,90,30.13,5.0,Calm,Calm,-,N/A,,Overcast,0,2012-10-04 10:54:00
7:08 AM,69.8,66.2,88,30.13,5.0,Calm,Calm,-,N/A,,Overcast,0,2012-10-04 11:08:00
7:54 AM,71.1,68.0,90,30.14,4.0,Calm,Calm,-,N/A,,Mostly Cloudy,0,2012-10-04 11:54:00
8:54 AM,73.0,68.0,84,30.15,10.0,Calm,Calm,-,N/A,,Mostly Cloudy,0,2012-10-04 12:54:00
9:10 AM,73.4,68.0,83,30.14,10.0,East,4.6,-,N/A,,Scattered Clouds,100,2012-10-04 13:10:00
9:33 AM,73.4,66.2,78,30.16,10.0,WNW,10.4,-,N/A,,Mostly Cloudy,300,2012-10-04 13:33:00
9:54 AM,73.9,68.0,82,30.15,8.0,ENE,4.6,-,0.00,Rain,Light Rain,60,2012-10-04 13:54:00
10:54 AM,75.0,68.0,79,30.14,7.0,ESE,4.6,-,0.00,,Mostly Cloudy,120,2012-10-04 14:54:00
11:54 AM,75.0,66.9,76,30.12,9.0,SSE,9.2,-,N/A,,Scattered Clouds,150,2012-10-04 15:54:00
12:54 PM,75.9,66.9,74,30.12,10.0,SE,3.5,-,N/A,,Partly Cloudy,130,2012-10-04 16:54:00
1:54 PM,77.0,68.0,74,30.09,9.0,SE,8.1,-,N/A,,Clear,130,2012-10-04 17:54:00
2:54 PM,75.0,66.9,76,30.08,10.0,South,6.9,-,N/A,,Partly Cloudy,170,2012-10-04 18:54:00
3:54 PM,75.0,68.0,79,30.07,10.0,Calm,Calm,-,N/A,,Mostly Cloudy,0,2012-10-04 19:54:00
4:54 PM,75.0,69.1,82,30.06,9.0,Calm,Calm,-,N/A,,Scattered Clouds,0,2012-10-04 20:54:00
5:54 PM,73.9,69.1,85,30.06,9.0,SSW,3.5,-,N/A,,Clear,210,2012-10-04 21:54:00
6:54 PM,73.0,69.1,87,30.06,8.0,SSW,3.5,-,N/A,,Clear,200,2012-10-04 22:54:00
7:54 PM,71.1,68.0,90,30.06,6.0,Calm,Calm,-,N/A,,Clear,0,2012-10-04 23:54:00
8:41 PM,68.0,66.2,94,30.07,3.0,Calm,Calm,-,N/A,,Partly Cloudy,0,2012-10-05 00:41:00
8:54 PM,69.1,66.9,93,30.07,6.0,WNW,4.6,-,N/A,,Partly Cloudy,290,2012-10-05 00:54:00
9:54 PM,69.1,66.0,90,30.09,6.0,WNW,5.8,-,N/A,,Clear,300,2012-10-05 01:54:00
10:54 PM,66.0,64.0,93,30.09,7.0,NW,4.6,-,N/A,,Clear,310,2012-10-05 02:54:00
11:54 PM,64.0,62.1,93,30.09,5.0,WNW,4.6,-,N/A,,Clear,300,2012-10-05 03:54:00